User: anonymous   Login
Location: Larrial
(48.2758°N, 4.5331°W)
Time: 13:41:21
(UTC+00:00)
Language:

Iridium 2 - Orbit

View from above orbital plane
View from above orbital plane
View from above satellite
View from above satellite

Ground track
Ground track

The orbit data is extracted from the following two-line orbital elements,

1 25527U 98066A   21163.75166287  .00001283  00000-0  58492-4 0  9991
2 25527  85.5307 250.4583 0010784 119.2321 241.0000 15.19529120239328
Epoch (UTC): 12 June 2021 18:02:23
Eccentricity: 0.0010784
inclination: 85.5307°
perigee height: 500 km
apogee height: 514 km
right ascension of ascending node: 250.4583°
argument of perigee: 119.2321°
revolutions per day: 15.19529120
mean anomaly at epoch: 241.0000°
orbit number at epoch: 23932

The dashed part of the orbit path shows where the satellite is in the earth's shadow,  

DLR